Weather History for Lumberton, NC

Change the Weather History Date:

Saturday, March 9, 2013

  Actual Average Record
Temperature  
Mean Temperature 49 °F 52 °F  
Max Temperature 64 °F 64 °F 84 °F (2009)
Min Temperature 34 °F 40 °F 25 °F (2005)
Degree Days  
Heating Degree Days 16 13  
Month to date heating degree days 193 127  
Since 1 July heating degree days 2267 2357  
Cooling Degree Days 0 0  
Month to date cooling degree days 0 0  
Year to date cooling degree days 4 3  
Moisture  
Dew Point 31 °F    
Average Humidity 58    
Maximum Humidity 85    
Minimum Humidity 30    
Precipitation  
Precipitation 0.00 in 0.11 in 0.27 in (1999)
Month to date precipitation 0.01 1.01  
Year to date precipitation 5.58 6.88  
Sea Level Pressure  
Sea Level Pressure 30.28 in    
Wind  
Wind Speed 5 mph (North)    
Max Wind Speed 14 mph    
Max Gust Speed 17 mph    
Visibility 10 miles    
Events      
T = Trace of Precipitation, MM = Missing Value Source: NWS Daily Summary

Daily Weather History Graph

Daily Weather History Graph

Search for Another Location

Airport:

Trip Planner

Search our weather history database for the weather conditions in past years. The results will help you decide how hot, cold, wet, or windy it might be!

Date:

Astronomy

Mar. 09, 2013 Rise Set
Actual Time 6:34 AM EST 6:19 PM EST
Civil Twilight 6:09 AM EST 6:44 PM EST
Nautical Twilight 5:40 AM EST 7:13 PM EST
Astronomical Twilight 5:11 AM EST 7:42 PM EST
Moon 4:53 AM EST (3/9) 4:22 PM EST (3/9)
Length of Visible Light 12h 34m
Length of Day
11h 44m
Waning Crescent, 5% of the Moon is Illuminated
Mar 9
Waning Crescent
Mar 11
New
Mar 19
First Quarter
Mar 27
Full
Apr 3
Last Quarter

Hourly Weather History & Observations

Time (EST) Temp. Windchill Dew Point Humidity Pressure Visibility Wind Dir Wind Speed Gust Speed Precip Events Conditions
12:54 AM 41.0 °F 36.4 °F 26.1 °F 55% 30.29 in 10.0 mi North 6.9 mph - N/A   Clear
1:54 AM 39.9 °F 36.7 °F 26.1 °F 58% 30.28 in 10.0 mi North 4.6 mph - N/A   Clear
2:54 AM 37.9 °F 35.5 °F 26.1 °F 62% 30.27 in 10.0 mi North 3.5 mph - N/A   Clear
3:54 AM 36.0 °F 32.1 °F 26.1 °F 67% 30.26 in 10.0 mi North 4.6 mph - N/A   Clear
4:54 AM 37.0 °F 33.3 °F 26.1 °F 65% 30.27 in 10.0 mi North 4.6 mph - N/A   Clear
5:54 AM 36.0 °F 32.1 °F 26.1 °F 67% 30.28 in 10.0 mi NNW 4.6 mph - N/A   Clear
6:54 AM 35.1 °F 32.2 °F 27.0 °F 72% 30.30 in 10.0 mi North 3.5 mph - N/A   Clear
7:54 AM 41.0 °F 36.4 °F 28.9 °F 62% 30.32 in 10.0 mi North 6.9 mph - N/A   Clear
8:54 AM 45.0 °F 39.3 °F 28.9 °F 53% 30.32 in 10.0 mi NE 11.5 mph - N/A   Clear
9:54 AM 50.0 °F - 28.9 °F 44% 30.32 in 10.0 mi NE 5.8 mph - N/A   Clear
10:54 AM 54.0 °F - 30.9 °F 41% 30.33 in 10.0 mi North 9.2 mph - N/A   Clear
11:54 AM 57.9 °F - 30.9 °F 36% 30.31 in 10.0 mi NE 10.4 mph - N/A   Clear
12:54 PM 61.0 °F - 32.0 °F 34% 30.29 in 10.0 mi North 8.1 mph - N/A   Clear
1:54 PM 61.0 °F - 32.0 °F 34% 30.26 in 10.0 mi NNE 8.1 mph 16.1 mph N/A   Clear
2:54 PM 62.1 °F - 30.9 °F 31% 30.25 in 10.0 mi Calm Calm - N/A   Clear
3:54 PM 64.0 °F - 32.0 °F 30% 30.23 in 10.0 mi NNW 6.9 mph - N/A   Clear
4:54 PM 64.0 °F - 32.0 °F 30% 30.23 in 10.0 mi North 6.9 mph - N/A   Clear
5:54 PM 61.0 °F - 30.9 °F 32% 30.24 in 10.0 mi ENE 3.5 mph - N/A   Clear
6:54 PM 50.0 °F - 37.0 °F 61% 30.26 in 10.0 mi Calm Calm - N/A   Clear
7:54 PM 48.0 °F - 36.0 °F 63% 30.27 in 10.0 mi Calm Calm - N/A   Clear
8:54 PM 41.0 °F - 36.0 °F 82% 30.27 in 10.0 mi Calm Calm - N/A   Clear
9:54 PM 42.1 °F - 36.0 °F 79% 30.28 in 10.0 mi Calm Calm - N/A   Clear
10:54 PM 39.9 °F - 35.1 °F 83% 30.30 in 10.0 mi Calm Calm - N/A   Clear
11:54 PM 39.0 °F - 35.1 °F 86% 30.29 in 10.0 mi Calm Calm - N/A   Clear